{"data":{"norad_id":58589,"epoch":"2026-05-25T03:55:51.966624Z","epoch_age_seconds":61204,"freshness":"FRESH","line1":"1 58589U 23200A   26145.16379591  .00002587  00000+0  10350-3 0  9994","line2":"2 58589  43.0009  97.2021 0000735 252.5554 107.5217 15.27571640135300","mean_motion":15.2757164,"eccentricity":7.35e-5,"inclination_deg":43.0009,"raan_deg":97.2021,"arg_perigee_deg":252.5554,"mean_anomaly_deg":107.5217,"bstar":0.0001035,"rev_number":13530,"period_min":94.267264610909,"perigee_km":482.56982998333,"apogee_km":483.57842801929,"semimajor_km":6861.2111290013,"source":"CELESTRAK","updated_at":"2026-05-25T13:38:18.664998Z"}}